This demonstration page uses our WeatherBlox Daily Observations layout. Learn more.

Left ArrowRight Arrow

30.21309, -93.2044

Hourly Observations for July 29, 2021

Temp ( °F °C ) Dew Point ( °F °C ) Humidity (%) Winds ( mph kmh ) Pressure ( in mb ) Visibility ( mi km ) Precip ( " mm )
12:15 am 00:15 Clear 83 28.4 76 24.7 80 80 SW 3 6 30.00 1016 10 16 0.00 0.00
12:35 am 00:35 Clear 83 28.5 76 24.7 80 80 SW 3 6 30.00 1016 10 16 0.00 0.00
12:55 am 00:55 Clear 83 28.4 76 24.7 80 80 SSW 3 6 30.00 1016 10 16 0.00 0.00
1:15 am 01:15 Clear 83 28.3 76 24.5 80 80 SSW 5 7 30.00 1016 10 16 0.00 0.00
1:35 am 01:35 Clear 80 26.8 76 24.6 88 88 Calm 30.00 1016 10 16 0.00 0.00
1:55 am 01:55 Mostly Cloudy 81 27.3 76 24.5 85 85 Calm 30.00 1016 10 16 0.00 0.00
2:15 am 02:15 Cloudy 83 28.3 76 24.6 80 80 SW 3 6 30.00 1016 10 16 0.00 0.00
2:35 am 02:35 Partly Cloudy 83 28.4 76 24.5 79 79 SW 3 6 29.99 1016 10 16 0.00 0.00
2:55 am 02:55 Clear 83 28.2 76 24.5 80 80 WSW 3 6 29.98 1015 10 16 0.00 0.00
3:15 am 03:15 Clear 81 27.3 76 24.5 85 85 Calm 29.98 1015 10 16 0.00 0.00
3:35 am 03:35 Clear 83 28.1 76 24.6 81 81 WSW 3 6 29.98 1015 10 16 0.00 0.00
3:55 am 03:55 Clear 83 28.1 76 24.6 81 81 W 5 7 29.98 1015 10 16 0.00 0.00
4:15 am 04:15 Clear 82 28 76 24.6 82 82 Calm 29.98 1015 10 16 0.00 0.00
4:35 am 04:35 Clear 82 27.7 76 24.6 83 83 Calm 29.98 1015 10 16 0.00 0.00
4:55 am 04:55 Partly Cloudy 80 26.4 76 24.5 89 89 N 5 7 29.99 1016 10 16 0.00 0.00
5:15 am 05:15 Partly Cloudy 80 26.5 76 24.7 90 90 N 3 6 29.99 1016 10 16 0.00 0.00
5:35 am 05:35 Partly Cloudy 80 26.4 76 24.5 89 89 N 3 6 29.99 1016 10 16 0.00 0.00
6:00 am 06:00 Mostly Clear 79 26 75 24 89 89 Calm 30.00 1016 10 16 0.00 0.00
6:50 am 06:50 Mostly Sunny 79 26 75 24 89 89 Calm 30.02 1017 7 11 0.00 0.00
7:55 am 07:55 Mostly Sunny 81 27 77 25 89 89 Calm 30.05 1018 7 11 0.00 0.00
8:55 am 08:55 Mostly Sunny 84 29 77 25 79 79 NNW 8 13 30.06 1018 10 16 0.00 0.00
9:55 am 09:55 Mostly Sunny 88 31 77 25 70 70 NW 6 9 30.07 1018 10 16 0.00 0.00
10:55 am 10:55 Partly Cloudy 90 32 77 25 67 67 N 6 9 30.06 1018 10 16 0.00 0.00
11:50 am 11:50 Mostly Cloudy 90 32 75 24 63 63 NNE 6 9 30.05 1018 10 16 0.00 0.00
12:50 pm 12:50 Mostly Cloudy 90 32 75 24 63 63 ENE 8 13 30.03 1017 10 16 0.00 0.00
1:47 pm 13:47 Mostly Cloudy 91 33 75 24 59 59 ENE 6 9 30.01 1016 10 16 0.00 0.00
2:51 pm 14:51 Mostly Cloudy 93 34 75 24 56 56 SE 6 9 30.00 1016 10 16 0.00 0.00
3:50 pm 15:50 Mostly Cloudy 95 35 75 24 53 53 E 7 11 29.99 1016 10 16 0.00 0.00
4:50 pm 16:50 Mostly Cloudy with Nearby Thunderstorms 88 31 75 24 66 66 SSW 15 24 30.00 1016 10 16 0.00 0.00
5:50 pm 17:50 Mostly Cloudy 82 28 73 23 74 74 WSW 7 11 30.01 1016 10 16 0.00 0.00
6:55 pm 18:55 Partly Cloudy 81 27 73 23 79 79 Calm 30.01 1016 10 16 0.00 0.00
7:55 pm 19:55 Partly Cloudy 79 26 75 24 89 89 Calm 30.02 1017 10 16 0.00 0.00
8:50 pm 20:50 Mostly Clear 79 26 75 24 89 89 Calm 30.01 1016 10 16 0.00 0.00
9:50 pm 21:50 Mostly Clear 79 26 75 24 89 89 Calm 30.00 1016 10 16 0.00 0.00
10:15 pm 22:15 Clear 78 25.7 75 24.1 91 91 NNE 5 7 30.02 1017 10 16 0.00 0.00
10:35 pm 22:35 Clear 78 25.7 75 23.8 89 89 ENE 6 9 30.03 1017 10 16 0.00 0.00
10:55 pm 22:55 Clear 78 25.7 75 24 90 90 E 3 6 30.03 1017 10 16 0.00 0.00
11:15 pm 23:15 Clear 78 25.5 75 23.8 90 90 Calm 30.02 1017 10 16 0.00 0.00
11:35 pm 23:35 Clear 78 25.8 75 23.8 89 89 Calm 30.02 1017 10 16 0.00 0.00
11:55 pm 23:55 Clear 78 25.5 75 23.9 91 91 SSE 3 6 30.02 1017 10 16 0.00 0.00

Powered by AerisWeather